Погода в Сотнуре

Россия / Республика Марий Эл     56°08′28″N   48°46′31″E
темп.,
°C
ветер,
м/с
пор.,
м/с
влажн.,
%
обл.,
%
осадки,
мм/ч
давл.,
гПа
погр.,
м
22 сентября, ср
ср2200:00+6в51259100 0.0 1020399
03:00+6в61359100 0.0 1019451
06:00+7в61559100 0.0 1018457
09:00+10в7134964 0.0 1017608
12:00+10вюв61164100 0.4 1018832
15:00+9вюв61391100 1.6 1018601
18:00+9вюв51191100 0.7 1019518
21:00+9юв41193100 0.8 1020579
23 сентября, чт
чт2300:00+9юв41194100 0.1 1020555
03:00+9вюв4995100 0.1 1021417
06:00+9вюв41094100 0.0 1021474
09:00+10вюв51189100 1.0 1021446
12:00+13юв61070100 0.0 1021727
15:00+10юв61284100 0.1 1020538
18:00+9юв51192100 0.1 1021495
21:00+9юв51283100 0.1 1020584
24 сентября, пт
пт2400:00+8юв51195100 1.9 1019633
03:00+8юв51294100 3.7 1018536
06:00+8юв51392100 1.2 1017737
09:00+9юв61485100 1.3 1016703
12:00+10юв51375100 0.1 1015640
15:00+10юв61483100 1.7 1015751
18:00+10ююв61380100 0.8 1015963
21:00+9ююв61389100 2.1 1015769
25 сентября, сб
сб2500:00+8юв41295100 1.4 1015663
03:00+7вюв61293100 4.8 1009770
06:00+8вюв41189100 0.5 1012443
09:00+7в4892100 2.9 1011445
12:00+9в3681100 1.4 1010647
15:00+8вюв3979100 1.4 10101016
18:00+8юв2684100 0.0 1010232
21:00+7юв2388100 0.0 101086
26 сентября, вс
вс2600:00+7в1188100 0.0 101012
03:00+7всв1187100 0.0 101016
06:00+7св1189100 0.0 101014
09:00+9ссв0183100 0.0 1010220
12:00+10св1175100 0.0 1011545
15:00+11св2366100 0.0 1012657
18:00+9ссв2278100 0.0 101229
21:00+9св2572100 0.0 1013106